Showing default

KITSAT 3, 25756

Orbit data source: Space-Track

KITSAT 3, 25756 is a payload satellite owned by KAIST (KR) in SSO that was launched on Wed, 26 May 1999 UTC via a PSLV launch vehicle from the Sirharikota (SRI). Payload-class satellites include a variety of spacecraft equipped with specific instruments for various scientific and technological missions. These include communications satellites like Starlink; space stations such as the ISS; scientific satellites like the Hubble; Earth observation satellites from companies like Planet Labs, Umbra, and HawkEye 360; GPS; miniature CubeSats for education and research; and military/defense satellites.

Loading next visibility...
Identifier
25756, 1999-029A
Orbit
SSO
Country
Flag of UnknownUnknown / SKOR
Related business
Manufacturer
KAIST
Mission
Non-operational Civil Imaging
Bus & Motor
SI-200, Unknown motor
Mass
110 kg wet, 110 kg dry
Launch date (UTC)
1999-05-26 (26 years ago)
Launch vehicle
PSLV
Launch site
Sirharikota (SRI)
Object type
Payload
Rocket body
Debris
Shape & HBR
Box + 2 Pan, 0.8 m
Radar Cross Section
0.780 m², Medium (>0.1 m² and < 1m²)

Expand to show TLE details & history
Last TLE update: 1 day ago

TLE from 1 day ago
0 KITSAT 3
1 25756U 99029A   25261.02010391  .00000250  00000-0  68536-4 0  9995
2 25756  98.6492 282.3909 0013630  20.4155 339.7583 14.55579152395434
Epoch: 2025-09-18T00:28Z
TLE epoch observation values (Epoch: 2025-09-18T00:28:56.977Z)
Latitude
-0.00008°
Longitude
-82.03419°
Altitude
701.388 km
Speed
7.51 km/s
True Right ascension
18h 49m 33s
True Declination
0° 00' 00"
Sunlit
Object was in daylight at epoch
Visualization orbit readout
Latitude
Unknown
Longitude
Unknown
Altitude
Unknown
Speed
Unknown
Apparent Right ascension
Unknown
Apparent Declination
Unknown
Sunlit
N/A
Visualization observer readout
Local Sidereal Time
19:55:28
Azimuth
Unknown
Elevation
Unknown
Doppler factor
Unknown
Orbital elements
Apogee altitude
714.247 km
Perigee altitude
694.939 km
Semi-major axis
7,082.73 km
Eccentricity
0.00136
Inclination
98.6492°
RAAN
282.3909°
Arg. of periapsis
20.4155°
True anomaly
339.70418°
Mean anomaly
339.7583°
Eccentric anomaly
339.73125°
Mean motion
3.64118 °/min
Orbital period
98.87 mins
BSTAR
0.000068536
Loading maneuver chart data...
Computing Atmospheric mass density...
Loading historical data...
Loading historical data...
Loading historical data...
Loading historical data...
Loading historical data...
Loading historical data...
Loading historical data...
Other satellites on launch #29 in the year 1999 (1999-05-26 UTC)

Documentation

Showing up to 5 results
|